GW0861 Weather Reports


Display with metric or nautical units.
time (UTC)temp
F
wind
direction
speed
MPH
gust
MPH
rain 1hr
in
rain 24hr
in
rain mn
in
humidity
%
barometer
mb
20260502170457 44 265 6.0 14.0 0.00 0.14 0.00 57 1012.7
20260502163957 44 276 9.0 16.0 0.00 0.14 0.00 59 1012.9
20260502163457 44 248 6.0 13.0 0.00 0.14 0.00 59 1013.0
20260502162957 44 302 9.0 14.0 0.00 0.14 0.00 57 1013.0
20260502162456 45 276 10.0 16.0 0.00 0.14 0.00 58 1013.1
20260502161957 45 266 11.0 16.0 0.00 0.14 0.00 56 1013.2
20260502161738 45 338 4.0 14.0 0.00 0.14 0.00 58 1013.1
20260502160956 45 276 5.0 14.0 0.00 0.14 0.00 58 1013.2
20260502160739 45 290 6.0 16.0 0.00 0.14 0.00 60 1013.2
20260502151959 44 333 4.0 13.0 0.00 0.14 0.00 57 1013.2
20260502151457 44 279 4.0 16.0 0.00 0.14 0.00 56 1013.2
20260502150956 44 268 10.0 16.0 0.00 0.14 0.00 59 1013.1
20260502150457 44 354 4.0 11.0 0.00 0.14 0.00 58 1013.2
20260502150236 45 343 6.0 11.0 0.00 0.14 0.00 59 1013.0
20260502130456 40 286 5.0 9.0 0.00 0.14 0.00 77 1013.8
20260502123456 37 278 3.0 7.0 0.00 0.14 0.00 84 1013.9
20260502123234 37 312 4.0 7.0 0.00 0.14 0.00 85 1013.8
20260502122456 36 337 4.0 10.0 0.00 0.14 0.00 85 1013.8
20260502121957 36 307 4.0 10.0 0.00 0.14 0.00 86 1013.8
20260502121458 36 274 4.0 10.0 0.00 0.14 0.00 86 1013.8
20260502120956 35 288 6.0 10.0 0.00 0.14 0.00 87 1013.8
20260502120457 35 276 5.0 11.0 0.00 0.14 0.00 87 1013.7
20260502115456 35 271 7.0 10.0 0.00 0.14 0.00 89 1013.8
20260502114956 34 314 5.0 7.0 0.00 0.14 0.00 89 1013.8
20260502114456 34 293 5.0 10.0 0.00 0.14 0.00 90 1013.8
20260502114236 34 296 5.0 10.0 0.00 0.14 0.00 90 1013.9
20260502113456 33 269 4.0 9.0 0.00 0.14 0.00 90 1013.9
20260502112956 33 285 6.0 9.0 0.00 0.14 0.00 91 1013.8
20260502112738 33 293 4.0 9.0 0.00 0.14 0.00 91 1013.9
20260502112234 33 296 5.0 9.0 0.00 0.14 0.00 91 1013.9
20260502111456 32 282 4.0 9.0 0.00 0.14 0.00 91 1013.9
20260502110957 32 285 5.0 9.0 0.00 0.14 0.00 91 1013.9
20260502110456 32 290 5.0 7.0 0.00 0.14 0.00 91 1013.8
20260502105956 32 289 5.0 7.0 0.00 0.14 0.00 91 1013.7
20260502105456 32 274 3.0 7.0 0.00 0.14 0.00 91 1013.7
20260502104957 31 289 5.0 7.0 0.00 0.14 0.00 91 1013.6
20260502104456 31 293 5.0 7.0 0.00 0.14 0.00 91 1013.6
20260502103957 32 288 6.0 7.0 0.00 0.14 0.00 91 1013.5
20260502103736 32 279 6.0 7.0 0.00 0.14 0.00 91 1013.4
20260502102956 32 281 6.0 7.0 0.00 0.14 0.00 91 1013.3
20260502102456 32 281 5.0 7.0 0.00 0.14 0.00 91 1013.2
20260502101956 32 281 6.0 7.0 0.00 0.14 0.00 91 1013.2
20260502101456 32 282 5.0 7.0 0.00 0.14 0.00 91 1013.1
20260502100957 32 288 6.0 7.0 0.00 0.14 0.00 91 1013.0
20260502100456 32 288 4.0 6.0 0.00 0.14 0.00 91 1013.0
20260502091457 34 319 1.0 3.0 0.00 0.14 0.00 91 1012.5
20260502091235 34 319 0.0 4.0 0.00 0.14 0.00 91 1012.5
20260502090456 34 319 0.0 4.0 0.00 0.14 0.00 91 1012.5
20260502090237 34 319 0.0 5.0 0.00 0.14 0.00 91 1012.5
20260502070955 36 293 3.0 4.0 0.00 0.14 0.00 93 1012.0
20260502070457 36 293 2.0 4.0 0.00 0.14 0.00 93 1012.0
20260502070236 36 306 2.0 6.0 0.00 0.14 0.00 93 1012.1
20260502065456 36 286 3.0 6.0 0.00 0.14 0.00 93 1012.0
20260502064956 36 269 3.0 5.0 0.00 0.14 0.00 93 1011.9
20260502064456 37 303 3.0 9.0 0.00 0.14 0.00 93 1012.0
20260502063956 37 288 5.0 9.0 0.00 0.14 0.00 93 1012.1
20260502063456 36 289 3.0 5.0 0.00 0.14 0.00 93 1012.2
20260502062956 36 274 3.0 7.0 0.00 0.14 0.00 93 1012.4
20260502062458 36 302 4.0 7.0 0.00 0.14 0.00 93 1012.2
20260502062237 36 281 4.0 6.0 0.00 0.14 0.00 93 1012.2
20260502061457 36 293 3.0 5.0 0.00 0.14 0.00 93 1012.4
20260502060956 36 281 3.0 5.0 0.00 0.14 0.00 93 1012.4
20260502060456 36 292 2.0 5.0 0.00 0.14 0.00 93 1012.5
20260502055955 36 292 2.0 6.0 0.00 0.14 0.00 93 1012.5
20260502055456 36 286 4.0 6.0 0.00 0.14 0.00 93 1012.4
20260502054956 36 295 5.0 5.0 0.00 0.14 0.00 93 1012.5
20260502054456 36 285 4.0 5.0 0.00 0.14 0.00 93 1012.2
20260502053956 36 310 3.0 5.0 0.00 0.14 0.00 93 1012.4
20260502053456 36 286 2.0 5.0 0.00 0.14 0.00 93 1012.4
20260502053236 36 286 3.0 5.0 0.00 0.14 0.00 93 1012.5
20260502052456 37 295 3.0 6.0 0.00 0.14 0.00 93 1012.4
20260502051955 37 290 3.0 6.0 0.00 0.14 0.00 93 1012.4
20260502051734 37 303 4.0 6.0 0.00 0.14 0.00 93 1012.4
20260502050956 37 288 2.0 5.0 0.00 0.14 0.00 93 1012.2
20260502050456 37 292 1.0 4.0 0.00 0.14 0.00 93 1012.4
20260502045956 37 326 2.0 5.0 0.00 0.14 0.00 93 1012.2
20260502045456 37 295 3.0 5.0 0.00 0.14 0.00 93 1012.4
20260502044958 37 295 1.0 3.0 0.00 0.14 0.00 93 1012.4
20260502044737 37 295 0.0 2.0 0.00 0.14 0.00 93 1012.2
20260502043955 37 295 0.0 2.0 0.00 0.14 0.00 93 1012.2
20260502043457 37 295 0.0 3.0 0.00 0.14 0.00 93 1012.2
20260502042956 37 295 0.0 3.0 0.00 0.14 0.00 93 1012.5
20260502042736 37 269 0.0 0.0 0.00 0.14 0.00 93 1012.5
20260502041956 37 269 0.0 1.0 0.00 0.14 0.00 93 1012.4
20260502041456 37 269 0.0 2.0 0.00 0.14 0.00 93 1012.4
20260502041237 37 269 1.0 4.0 0.00 0.14 0.00 93 1012.4
20260502040456 37 269 1.0 4.0 0.00 0.14 0.00 93 1012.5
20260502035958 38 281 1.0 4.0 0.00 0.14 0.14 93 1012.4
20260502035456 38 286 1.0 4.0 0.00 0.14 0.14 93 1012.2
20260502034956 38 286 0.0 5.0 0.00 0.14 0.14 93 1012.2
20260502034735 38 324 2.0 6.0 0.00 0.14 0.14 93 1012.2
20260502033956 38 281 2.0 6.0 0.00 0.14 0.14 93 1012.1
20260502033456 38 290 1.0 7.0 0.00 0.14 0.14 93 1012.1
20260502032956 38 338 3.0 7.0 0.01 0.14 0.14 93 1012.1
20260502032456 38 286 6.0 7.0 0.01 0.14 0.14 94 1012.2
20260502031955 39 313 4.0 7.0 0.01 0.14 0.14 94 1012.2
20260502031455 39 269 3.0 7.0 0.01 0.14 0.14 93 1012.1
20260502030956 39 299 3.0 10.0 0.01 0.14 0.14 94 1012.0
20260502030456 39 319 4.0 12.0 0.01 0.14 0.14 94 1011.9
20260502030237 39 274 4.0 12.0 0.01 0.13 0.14 94 1011.8
20260502025455 39 302 3.0 10.0 0.01 0.13 0.14 94 1011.8
20260502024955 39 317 4.0 10.0 0.01 0.13 0.14 94 1011.9
20260502024736 39 299 5.0 7.0 0.01 0.13 0.14 94 1011.8
20260502023955 39 298 4.0 7.0 0.01 0.13 0.14 94 1011.8
20260502023455 39 303 4.0 12.0 0.01 0.13 0.14 93 1011.9
20260502022956 39 285 6.0 12.0 0.00 0.13 0.13 93 1011.9
20260502022456 40 290 7.0 12.0 0.00 0.13 0.13 94 1012.0
20260502022018 40 281 6.0 10.0 0.00 0.13 0.13 94 1011.9
20260502022007 40 279 8.0 12.0 0.00 0.13 0.13 94 1011.9
20260502020956 40 272 4.0 9.0 0.00 0.13 0.13 94 1012.0
20260502020456 40 283 4.0 9.0 0.00 0.13 0.13 94 1012.0
20260502015956 40 285 5.0 9.0 0.00 0.13 0.13 94 1012.0
20260502015455 40 261 5.0 10.0 0.01 0.13 0.13 93 1012.0
20260502014956 40 283 6.0 10.0 0.01 0.13 0.13 93 1011.9
20260502014455 40 268 7.0 10.0 0.01 0.13 0.13 93 1011.9
20260502013955 40 254 6.0 10.0 0.01 0.13 0.13 93 1011.8
20260502013455 40 251 7.0 11.0 0.01 0.13 0.13 93 1011.8
20260502013234 40 281 6.0 11.0 0.01 0.13 0.13 93 1011.7
20260502012455 40 275 5.0 9.0 0.01 0.13 0.13 93 1011.6
20260502012236 40 292 4.0 5.0 0.01 0.13 0.13 93 1011.4
20260502011455 40 293 2.0 4.0 0.02 0.13 0.13 93 1011.4
20260502010955 40 262 2.0 3.0 0.02 0.13 0.13 93 1011.3
20260502010455 40 245 2.0 4.0 0.02 0.13 0.13 93 1011.3
20260502005956 40 248 2.0 5.0 0.02 0.11 0.13 93 1011.3
20260502005456 40 237 2.0 6.0 0.01 0.11 0.12 93 1011.3
20260502005017 40 279 4.0 7.0 0.02 0.11 0.12 92 1011.2
20260502005006 40 255 2.0 6.0 0.01 0.11 0.12 93 1011.2
20260502003956 40 250 3.0 10.0 0.02 0.11 0.12 92 1011.2
20260502003457 40 245 4.0 10.0 0.02 0.11 0.12 92 1011.2
20260502002955 40 243 5.0 10.0 0.02 0.11 0.12 92 1011.1
20260502002455 40 265 5.0 10.0 0.03 0.11 0.12 92 1011.1
20260502002234 40 254 4.0 10.0 0.03 0.11 0.12 92 1011.0
20260502001455 40 266 4.0 10.0 0.03 0.11 0.11 92 1011.1
20260502000956 40 247 4.0 9.0 0.04 0.11 0.11 92 1011.1
20260502000455 40 261 4.0 9.0 0.04 0.11 0.11 92 1011.0
20260501235956 41 255 5.0 9.0 0.04 0.07 0.11 92 1010.9
20260501235456 41 247 4.0 6.0 0.05 0.07 0.11 92 1010.8
20260501234956 41 247 3.0 7.0 0.05 0.07 0.10 91 1010.8
20260501234455 41 266 4.0 9.0 0.04 0.07 0.10 91 1010.8
20260501233955 41 283 4.0 9.0 0.04 0.07 0.10 91 1010.9
20260501233455 41 248 6.0 10.0 0.04 0.07 0.10 91 1010.9
20260501232957 41 265 6.0 10.0 0.05 0.07 0.09 91 1010.9
20260501232455 41 314 6.0 10.0 0.04 0.07 0.09 91 1010.8
20260501232236 41 248 6.0 11.0 0.04 0.07 0.09 91 1010.8
20260501231455 42 247 6.0 11.0 0.04 0.07 0.08 90 1010.9
20260501230955 42 244 5.0 11.0 0.03 0.07 0.07 90 1010.8
20260501230733 42 258 6.0 11.0 0.03 0.07 0.07 90 1010.9
20260501225956 42 281 6.0 9.0 0.03 0.04 0.07 90 1010.8
20260501225455 42 241 4.0 7.0 0.02 0.04 0.06 90 1010.9
20260501225234 42 274 5.0 10.0 0.02 0.04 0.06 90 1010.8
20260501224455 43 259 4.0 10.0 0.02 0.04 0.06 90 1010.8
20260501223955 43 262 4.0 6.0 0.03 0.04 0.06 90 1010.8
20260501223456 43 276 3.0 5.0 0.03 0.04 0.06 90 1010.8
20260501222955 43 214 4.0 6.0 0.03 0.04 0.05 90 1010.9
20260501222757 43 241 4.0 7.0 0.03 0.04 0.05 89 1010.8
20260501222751 43 247 3.0 7.0 0.03 0.04 0.05 89 1010.9
20260501221455 43 268 4.0 7.0 0.02 0.04 0.04 89 1010.9
20260501220955 43 233 2.0 5.0 0.02 0.04 0.04 89 1011.0
20260501220455 43 243 2.0 5.0 0.03 0.04 0.04 88 1010.8
20260501215955 43 213 2.0 5.0 0.03 0.01 0.04 88 1010.9
20260501215456 43 192 3.0 5.0 0.03 0.01 0.04 88 1010.7
20260501214955 43 243 3.0 6.0 0.03 0.01 0.04 88 1010.9
20260501214456 44 200 3.0 6.0 0.03 0.01 0.04 87 1011.0
20260501214232 44 238 3.0 6.0 0.02 0.01 0.03 87 1010.9
20260501213455 44 224 2.0 9.0 0.03 0.01 0.03 86 1010.9
20260501212955 44 241 5.0 9.0 0.02 0.01 0.02 86 1011.0
20260501212454 44 265 1.0 7.0 0.02 0.01 0.02 86 1010.8
20260501211955 44 206 4.0 9.0 0.02 0.01 0.02 86 1010.7
20260501211456 44 255 3.0 9.0 0.02 0.01 0.02 85 1010.8
20260501210955 44 200 4.0 10.0 0.02 0.01 0.02 85 1010.8
20260501210734 44 223 4.0 10.0 0.01 0.01 0.01 84 1010.8
20260501205955 44 204 5.0 9.0 0.01 0.00 0.01 83 1010.9
20260501205454 44 182 5.0 10.0 0.01 0.00 0.01 83 1010.8
20260501204955 44 200 5.0 14.0 0.01 0.00 0.01 82 1010.8
20260501204455 45 259 4.0 14.0 0.01 0.01 0.01 81 1010.8
20260501204236 45 199 4.0 11.0 0.01 0.01 0.01 80 1010.8
20260501203455 45 179 5.0 10.0 0.00 0.01 0.00 79 1010.8
20260501202955 46 207 5.0 10.0 0.00 0.01 0.00 78 1010.8
20260501202455 46 220 5.0 10.0 0.00 0.01 0.00 77 1010.9
20260501201955 46 210 5.0 10.0 0.00 0.01 0.00 76 1010.9
20260501201455 47 207 7.0 9.0 0.00 0.01 0.00 75 1010.8
20260501200956 47 233 4.0 11.0 0.00 0.01 0.00 73 1010.8
20260501200455 47 268 5.0 16.0 0.00 0.01 0.00 72 1010.8
20260501195957 47 257 7.0 16.0 0.00 0.01 0.00 71 1010.7
20260501195454 48 250 10.0 16.0 0.00 0.01 0.00 69 1010.8
20260501195233 48 257 6.0 16.0 0.00 0.01 0.00 69 1010.8
20260501194456 49 238 7.0 16.0 0.00 0.01 0.00 67 1010.8
20260501194230 49 286 9.0 16.0 0.00 0.01 0.00 66 1010.8
20260501193455 50 258 10.0 16.0 0.00 0.01 0.00 66 1010.7
20260501192954 50 247 5.0 16.0 0.00 0.01 0.00 68 1010.7
20260501192454 50 285 8.0 16.0 0.00 0.01 0.00 65 1010.7
20260501191954 50 255 6.0 11.0 0.00 0.01 0.00 66 1010.8
20260501191456 49 188 4.0 11.0 0.00 0.01 0.00 65 1010.9
20260501190955 49 235 6.0 12.0 0.00 0.01 0.00 65 1010.9
20260501190739 49 276 5.0 16.0 0.00 0.01 0.00 65 1010.8
20260501190233 49 296 10.0 16.0 0.00 0.01 0.00 65 1010.9
20260501185454 49 216 6.0 10.0 0.00 0.01 0.00 63 1010.8
20260501184956 49 276 5.0 11.0 0.00 0.01 0.00 63 1010.9
20260501184454 49 217 4.0 15.0 0.00 0.01 0.00 62 1010.9
20260501183955 49 245 8.0 15.0 0.00 0.01 0.00 62 1011.0
20260501183454 49 238 8.0 15.0 0.00 0.01 0.00 61 1011.0
20260501182955 50 281 3.0 9.0 0.00 0.01 0.00 60 1010.9
20260501182734 50 45 4.0 7.0 0.00 0.01 0.00 59 1010.9
20260501182233 50 141 3.0 7.0 0.00 0.01 0.00 60 1010.9
20260501181455 50 233 2.0 12.0 0.00 0.01 0.00 60 1010.9
20260501181235 50 258 8.0 12.0 0.00 0.01 0.00 60 1011.0
20260501180455 50 250 3.0 9.0 0.00 0.01 0.00 59 1011.2
20260501175955 50 172 1.0 5.0 0.00 0.01 0.00 59 1011.2
20260501175454 50 142 1.0 9.0 0.00 0.01 0.00 58 1011.1
20260501174954 50 257 5.0 9.0 0.00 0.01 0.00 62 1011.2
20260501174455 50 159 5.0 9.0 0.00 0.01 0.00 60 1011.3
20260501173957 49 114 2.0 10.0 0.00 0.01 0.00 62 1011.3
20260501173455 49 307 4.0 11.0 0.00 0.01 0.00 62 1011.3
20260501172955 48 231 2.0 11.0 0.00 0.01 0.00 61 1011.4
20260501172454 48 235 4.0 12.0 0.00 0.01 0.00 65 1011.5
20260501171954 47 327 8.0 13.0 0.00 0.01 0.00 63 1011.5
20260501171455 47 264 7.0 13.0 0.00 0.01 0.00 65 1011.6